Kecskemet, Hungary

7:51 AM CEST on October 22, 2017 (GMT +0200)
Kecskemet

Weather History for LHKE - December, 2013

Change the Weather History Date:

Saturday, December 28, 2013

  Actual Average (LHBP) Record (LHBP)
Temperature  
Mean Temperature 44 °F -  
Max Temperature 54 °F 32 °F 50 °F (2013)
Min Temperature 33 °F 21 °F 0 °F (2010)
Degree Days  
Heating Degree Days 22    
Moisture  
Dew Point 39 °F    
Average Humidity 85    
Maximum Humidity 100    
Minimum Humidity 52    
Precipitation  
Precipitation 0.00 in - - ()
Sea Level Pressure  
Sea Level Pressure 30.03 in    
Wind  
Wind Speed 4 mph ()    
Max Wind Speed 13 mph    
Max Gust Speed -    
Visibility 2.4 miles    
Events Fog    
Averages and records for this station are not official NWS values.
T = Trace of Precipitation, MM = Missing Value Source: Averaged Metar Reports

Daily Weather History Graph

Daily Weather History Graph

Search for Another Location

Airport or City:

Trip Planner

Search our weather history database for the weather conditions in past years. The results will help you decide how hot, cold, wet, or windy it might be!

Date:

Astronomy

Dec. 28, 2013 Rise Set
Actual Time 7:26 AM CET 3:59 PM CET
Civil Twilight 6:50 AM CET 4:34 PM CET
Nautical Twilight 6:12 AM CET 5:13 PM CET
Astronomical Twilight 5:35 AM CET 5:50 PM CET
Moon 2:32 AM CET (12/28) 12:46 PM CET (12/28)
Length of Visible Light 9h 43m
Length of Day
8h 33m
Waning Crescent, 21% of the Moon is Illuminated
Dec 28
Waning Crescent
Jan 1
New
Jan 8
First Quarter
Jan 16
Full
Jan 24
Last Quarter

Hourly Weather History & Observations

Time (CET) Temp. Windchill Dew Point Humidity Pressure Visibility Wind Dir Wind Speed Gust Speed Precip Events Conditions
12:00 AM 36 °F - 35 °F 93% 30.04 in 2 mi NNW 2.2 mph - - Fog Patches of Fog
12:15 AM 35.6 °F - 33.8 °F 93% 30.01 in 1.2 mi Calm Calm - N/A   Partly Cloudy
12:45 AM 35.6 °F - 33.8 °F 93% 30.01 in 1.2 mi Calm Calm - N/A   Mostly Cloudy
1:00 AM 36 °F - 35 °F 93% 30.01 in 2 mi SSE 4.5 mph - -   Mist
1:15 AM 37.4 °F - 35.6 °F 93% 30.01 in 1.2 mi NNE 2.2 mph - N/A   Mostly Cloudy
1:45 AM 39.2 °F - 37.4 °F 93% 30.04 in 1.2 mi Calm Calm - N/A   Overcast
2:00 AM 39 °F - 38 °F 92% 30.05 in 1 mi Calm Calm - -   Mist
2:15 AM 39.2 °F 36.0 °F 37.4 °F 93% 30.04 in 1.2 mi ENE 4.5 mph - N/A   Overcast
2:45 AM 39.2 °F 36.0 °F 39.2 °F 100% 30.04 in 1.2 mi ENE 4.5 mph - N/A   Overcast
3:00 AM 40 °F - 38 °F 92% 30.06 in 1 mi ENE 4.5 mph - -   Mist
3:15 AM 39.2 °F 36.0 °F 37.4 °F 93% 30.01 in 1.2 mi ESE 4.5 mph - N/A   Scattered Clouds
3:45 AM 39.2 °F - 37.4 °F 93% 30.01 in 1.2 mi Calm Calm - N/A   Scattered Clouds
4:00 AM 38 °F - 37 °F 93% 30.04 in 1 mi Calm Calm - - Fog Patches of Fog
4:15 AM 37.4 °F - 35.6 °F 93% 30.01 in 1.2 mi ESE 2.2 mph - N/A   Partly Cloudy
4:45 AM 35.6 °F 31.8 °F 35.6 °F 100% 30.01 in 1.2 mi SE 4.5 mph - N/A   Partly Cloudy
5:00 AM 36 °F - 35 °F 95% 30.04 in 1 mi SE 4.5 mph - - Fog Patches of Fog
5:15 AM 35.6 °F 31.8 °F 33.8 °F 93% 30.01 in 1.2 mi SSE 4.5 mph - N/A   Mist
5:45 AM - - - N/A% - 1.9 mi SSE 6.7 mph - N/A   Scattered Clouds
6:00 AM 40 °F - 39 °F 96% 30.05 in 1 mi SSE 4.5 mph - - Fog Patches of Fog
6:15 AM 39.2 °F 34.4 °F 37.4 °F 93% 30.04 in 1.9 mi SSE 6.7 mph - N/A   Mist
6:45 AM 39.2 °F 36.0 °F 37.4 °F 93% 30.04 in 1.2 mi SSE 4.5 mph - N/A   Partly Cloudy
7:00 AM 39 °F - 38 °F 92% 30.07 in 1 mi SSE 4.5 mph - -   Mist
7:15 AM 39.2 °F 36.0 °F 37.4 °F 93% 30.04 in 1.2 mi SSE 4.5 mph - N/A   Partly Cloudy
7:22 AM 39.2 °F 36.0 °F 37.4 °F 93% 30.04 in 0.9 mi SSE 4.5 mph - N/A   Partly Cloudy
7:45 AM 37.4 °F 33.9 °F 37.4 °F 100% 30.04 in 0.7 mi SSE 4.5 mph - N/A   Partly Cloudy
7:53 AM - - - N/A% - 1.9 mi South 8.9 mph - N/A   Scattered Clouds
8:00 AM 38 °F - 37 °F 94% 30.08 in 1 mi SSE 4.5 mph - -   Mist
8:13 AM 37.4 °F 33.9 °F 35.6 °F 93% 30.06 in 0.5 mi SSE 4.5 mph - N/A Fog Fog
8:15 AM 37.4 °F 33.9 °F 35.6 °F 93% 30.06 in 0.5 mi SSE 4.5 mph - N/A Fog Fog
8:45 AM - - - N/A% - 3.1 mi South 8.9 mph - N/A   Scattered Clouds
8:51 AM 39.2 °F 34.4 °F 39.2 °F 100% 30.06 in 0.6 mi ESE 6.7 mph - N/A   Partly Cloudy
9:00 AM 39 °F - 38 °F 95% 30.09 in 0 mi SE 4.5 mph - - Fog Partial Fog
9:15 AM 41.0 °F 36.5 °F 39.2 °F 93% 30.06 in 0.9 mi SSE 6.7 mph - N/A   Partly Cloudy
9:36 AM 42.8 °F 38.7 °F 41.0 °F 93% 30.06 in 1.9 mi SSE 6.7 mph - N/A   Partly Cloudy
9:45 AM 42.8 °F 38.7 °F 41.0 °F 93% 30.06 in 2.5 mi SSE 6.7 mph - N/A   Partly Cloudy
10:00 AM 43 °F - 40 °F 87% 30.09 in 2 mi SSE 6.7 mph - - Fog Light Fog
10:15 AM 44.6 °F 40.8 °F 41.0 °F 87% 30.06 in 2.5 mi SSE 6.7 mph - N/A   Partly Cloudy
10:45 AM 46.4 °F 43.0 °F 41.0 °F 81% 30.06 in 2.5 mi SSE 6.7 mph - N/A   Partly Cloudy
10:55 AM 46.4 °F 43.0 °F 41.0 °F 81% 30.06 in 3.1 mi South 6.7 mph - N/A   Partly Cloudy
11:00 AM 46 °F - 41 °F 77% 30.08 in 2 mi SSE 6.7 mph - -   Mist
11:15 AM 48.2 °F - 41.0 °F 76% 30.04 in 3.1 mi SSE 6.7 mph - N/A   Partly Cloudy
11:45 AM - - - N/A% - 3.1 mi SSE 6.7 mph - N/A   Mist
12:00 PM 50 °F - 42 °F 64% 30.06 in 4 mi SSE 8.9 mph - -  
12:15 PM 51.8 °F - 41.0 °F 67% 30.04 in 5.0 mi SSE 11.2 mph - N/A   Unknown
12:45 PM 53.6 °F - 41.0 °F 62% 30.01 in - South 13.4 mph - N/A   Clear
1:00 PM 53 °F - 41 °F 54% 30.04 in 6 mi South 13.4 mph - -  
1:15 PM 53.6 °F - 41.0 °F 62% 30.01 in - South 8.9 mph - N/A   Clear
1:45 PM 53.6 °F - 41.0 °F 62% 30.01 in - SSE 8.9 mph - N/A   Clear
2:00 PM 54 °F - 42 °F 52% 30.03 in 6 mi SSE 8.9 mph - -  
2:15 PM 53.6 °F - 41.0 °F 62% 30.01 in - SSE 8.9 mph - N/A   Clear
2:45 PM - - - N/A% - 3.1 mi SSE 6.7 mph - N/A   Clear
3:00 PM 53 °F - 42 °F 57% 30.02 in 6 mi SSE 6.7 mph - -  
3:15 PM 51.8 °F - 41.0 °F 67% 30.01 in - South 4.5 mph - N/A   Clear
3:45 PM 50.0 °F - 41.0 °F 71% 30.01 in 5.0 mi SSE 2.2 mph - N/A   Unknown
4:00 PM 50 °F - 42 °F 65% 30.03 in 5 mi SSE 2.2 mph - -  
4:15 PM 48.2 °F - 41.0 °F 76% 30.01 in 4.3 mi Calm Calm - N/A   Unknown
4:45 PM 46.4 °F 44.4 °F 41.0 °F 81% 30.01 in 3.7 mi ESE 4.5 mph - N/A   Unknown
5:00 PM 47 °F - 41 °F 73% 30.03 in 4 mi ESE 4.5 mph - -  
5:15 PM 46.4 °F 43.0 °F 39.2 °F 76% 30.01 in 3.7 mi SE 6.7 mph - N/A   Unknown
5:45 PM - - - N/A% - 3.1 mi SSE 6.7 mph - N/A Fog Fog
6:00 PM 46 °F - 40 °F 74% 30.02 in 4 mi SE 8.9 mph - -  
6:15 PM 46.4 °F 42.0 °F 39.2 °F 76% 30.01 in 4.3 mi SSE 8.9 mph - N/A   Unknown
6:45 PM 44.6 °F 39.8 °F 39.2 °F 81% 30.01 in 4.3 mi SE 8.9 mph - N/A   Unknown
7:00 PM 44 °F - 40 °F 80% 30.02 in 4 mi SE 8.9 mph - -  
7:15 PM 42.8 °F 37.6 °F 39.2 °F 87% 30.01 in 4.3 mi SSE 8.9 mph - N/A   Unknown
7:45 PM 42.8 °F 38.7 °F 39.2 °F 87% 29.98 in 3.7 mi SE 6.7 mph - N/A   Unknown
8:00 PM 43 °F - 40 °F 83% 30.01 in 4 mi SE 6.7 mph - -  
8:15 PM 42.8 °F 38.7 °F 39.2 °F 87% 30.01 in 3.7 mi SSE 6.7 mph - N/A   Unknown
8:45 PM - - - N/A% - 3.1 mi SSE 6.7 mph - N/A Fog Fog
9:00 PM 40 °F - 38 °F 89% 30.03 in 4 mi SSE 4.5 mph - -  
9:07 PM 39.2 °F 34.4 °F 37.4 °F 93% 30.01 in 3.1 mi SE 6.7 mph - N/A   Mist
9:15 PM 39.2 °F 36.0 °F 37.4 °F 93% 30.01 in 3.1 mi SE 4.5 mph - N/A   Mist
9:45 PM 39.2 °F 36.0 °F 37.4 °F 93% 30.01 in 2.5 mi SSE 4.5 mph - N/A   Mist
10:00 PM 40 °F - 38 °F 89% 30.03 in 2 mi SSE 4.5 mph - -   Mist
10:02 PM 39.2 °F 34.4 °F 39.2 °F 100% 30.01 in 1.9 mi SSE 6.7 mph - N/A   Mist
10:15 PM 39.2 °F 34.4 °F 37.4 °F 93% 30.01 in 1.9 mi SE 6.7 mph - N/A   Mist
10:45 PM 41.0 °F 38.1 °F 37.4 °F 87% 30.01 in 1.9 mi SSE 4.5 mph - N/A   Mist
11:00 PM 40 °F - 38 °F 89% 30.03 in 2 mi SSE 4.5 mph - -   Mist
11:15 PM 39.2 °F 34.4 °F 37.4 °F 93% 29.98 in 1.9 mi SE 6.7 mph - N/A   Mist
11:45 PM - - - N/A% - 1.9 mi North - - N/A Fog Fog